Regional Weather Roundup
Issued by NWS

Home | Current Version | Previous Version | Graphics & Text | Print | Product List | Glossary On
Versions: 1 2 3 4 5 6 7 8 9 10 11 12 13 14 15 16 17 18 19 20 21 22 23 24 25 26 27 28 29 30 31 32 33 34 35 36 37 38 39 40 41 42 43 44 45 46 47 48 49 50
756
ASUS43 KDMX 251608
RWRIA

WEATHER ROUNDUP FOR IOWA
NATIONAL WEATHER SERVICE DES MOINES IA
1100 AM CDT THU AUG 25 2016

NOTE: "FAIR" INDICATES FEW OR NO CLOUDS BELOW 12,000 FEET WITH NO
SIGNIFICANT WEATHER AND/OR OBSTRUCTIONS TO VISIBILITY.

* - THESE STATIONS ARE NOT NWS STATIONS...THUS NOT UNDER NWS
QUALITY CONTROL.  THEY ALSO DO NOT REPORT WEATHER SUCH
AS PRECIPITATION OR FOG.

IAZ001>003-012>014-020>022-031>034-043>046-251700-
   NORTHWEST IOWA

CITY           SKY/WX    TMP DP  RH WIND       PRES   REMARKS
CARROLL *      CLOUDY    68  61  77 CALM      30.14S
CHEROKEE *     CLOUDY    65  60  82 N5        30.15R
DENISON *      CLOUDY    66  63  88 CALM      30.13R
LE MARS *      CLOUDY    64  57  77 N6        30.17R
ORANGE CITY *  CLOUDY    63  57  82 NW6       30.16R
SHELDON *      CLOUDY    64  57  77 NW8       30.14R
SIOUX CITY     CLOUDY    65  58  78 NW6       30.16R
SPENCER        CLOUDY    68  55  63 N3        30.15R
STORM LAKE *   CLOUDY    68  61  77 W3        30.16R
$$

IAZ055>058-069>071-079>083-090>094-251700-
   SOUTHWEST IOWA

CITY           SKY/WX    TMP DP  RH WIND       PRES   REMARKS
ATLANTIC *     CLOUDY    64  61  88 CALM      30.14S
AUDUBON *      CLOUDY    66  61  82 CALM      30.15S
CLARINDA *       N/A     64  64 100 MISG      30.14F FOG
COUNCIL BLFS * CLOUDY    64  61  88 NE6       30.12F
CRESTON *      PTSUNNY   66  63  88 N5        30.15F
HARLAN  *      CLOUDY    64  63  94 CALM      30.18R
LAMONI         RAIN      65  65 100 NE9       30.12F FOG
RED OAK *      CLOUDY    64  63  94 E7        30.13F FOG
SHENANDOAH *   CLOUDY    64 N/A N/A NE8       30.10F
$$

IAZ047>049-059>061-072>074-084-251700-
   CENTRAL IOWA

CITY           SKY/WX    TMP DP  RH WIND       PRES   REMARKS
AMES           CLOUDY    70  62  76 N5        30.12R
ANKENY *         N/A    N/A N/A N/A MISG        N/A
BOONE *        CLOUDY    68  61  77 N5        30.12S
CHARITON *     LGT RAIN  68  66  94 MISG      30.15R
DES MOINES     LGT RAIN  70  63  78 NW7       30.12R
GRINNELL*      CLOUDY    71  62  73 CALM      30.12R
KNOXVILLE *    CLOUDY    70  64  83 NW5       30.11R
MARSHALLTOWN   PTSUNNY   73  63  70 NW6       30.11R
NEWTON *       CLOUDY    70  64  83 NW3       30.12R
PERRY *          N/A     66  64  93 CALM      30.13S
$$

IAZ004>006-015-016-023>025-035-036-251700-
   NORTH CENTRAL IOWA

CITY           SKY/WX    TMP DP  RH WIND       PRES   REMARKS
ALGONA *       CLOUDY    70  61  73 NW6       30.13R
ESTHERVILLE    CLOUDY    66  58  75 NW5       30.14R
FORT DODGE *   CLOUDY    70  61  73 CALM      30.14R
MASON CITY     CLOUDY    72  60  66 W6        30.13R
FOREST CITY *    N/A    N/A N/A N/A MISG        N/A
WEBSTER CITY * CLOUDY    70  64  83 CALM      30.12R
IOWA FALLS *     N/A     72  61  67 CALM      30.13R
$$

IAZ007>011-017>019-026>030-037>042-050>054-066-251700-
   NORTHEAST IOWA

CITY           SKY/WX    TMP DP  RH WIND       PRES   REMARKS
CEDAR RAPIDS   PTSUNNY   75  62  64 N5        30.09R
CHARLES CITY * CLOUDY    72  61  68 W5        30.11S
CLINTON *      CLOUDY    74  64  71 NE5       30.08R
DECORAH *      SUNNY     72  61  68 VRB5      30.09R
DUBUQUE        MOSUNNY   75  62  64 N7        30.09R
MONTICELLO *   MOSUNNY   75  63  64 VRB5      30.08R
OELWEIN *      MOSUNNY   73  63  68 NW5       30.11R
WATERLOO       CLOUDY    73  61  65 NW7       30.09R
$$

IAZ064-065-067-068-078-251700-
   EAST CENTRAL IOWA

CITY           SKY/WX    TMP DP  RH WIND       PRES   REMARKS
DAVENPORT      CLOUDY    75  64  68 E3        30.08R
IOWA CITY      CLOUDY    74  62  66 N5        30.09R
MT. PLEASANT * CLOUDY    75  67  74 CALM      30.10R
MUSCATINE *    CLOUDY    75  64  69 VRB6      30.09R
QUAD CITIES    CLOUDY    77  64  64 VRB5      30.07R
$$

IAZ062-063-075>077-085>089-095>099-251700-
   SOUTHEAST IOWA

CITY           SKY/WX    TMP DP  RH WIND       PRES   REMARKS
BURLINGTON     CLOUDY    76  69  79 E5        30.09R
FAIRFIELD *    CLOUDY    73  63  68 E3        30.11R
FORT MADISON * PTSUNNY   75  70  83 CALM      30.10R
KEOKUK *       CLOUDY    77  70  78 VRB3      30.09R
OSKALOOSA *    PTSUNNY   71  63  77 CALM      30.12R
OTTUMWA        CLOUDY    71  62  73 NE5       30.12R
WASHINGTON *   PTSUNNY   73  64  73 CALM      30.11R
$$

ABBREVIATIONS USED IN REMARKS
   TC - TEMPERATURES IN CELSIUS
  WCI - WIND CHILL INDEX
   HX - HEAT INDEX
  VSB - VISIBILITY
$$





USA.gov is the U.S. government's official web portal to all federal, state and local government web resources and services.